KC5DAQ-27 Weather Reports


Display with metric or nautical units.
time (UTC)temp
F
wind
direction
speed
MPH
gust
MPH
rain 1hr
in
rain 24hr
in
rain mn
in
humidity
%
barometer
mb
20260506080257 76 165 6.0 10.0 0.00 0.04 0.00 94 999.7
20260506080155 76 161 6.0 10.0 0.00 0.04 0.00 94 999.8
20260506073452 76 200 5.0 10.0 0.00 0.04 0.00 94 1000.1
20260506073354 76 183 5.0 10.0 0.00 0.04 0.00 94 1000.0
20260506073252 76 197 6.0 10.0 0.00 0.04 0.00 94 1000.1
20260506073151 76 186 5.0 10.0 0.00 0.04 0.00 94 1000.1
20260506073050 76 185 5.0 10.0 0.00 0.04 0.00 94 1000.1
20260506072948 76 171 6.0 10.0 0.00 0.04 0.00 94 1000.2
20260506072847 76 196 7.0 11.0 0.00 0.04 0.00 94 1000.3
20260506072745 76 166 7.0 11.0 0.00 0.04 0.00 94 1000.3
20260506072644 76 176 6.0 11.0 0.00 0.04 0.00 94 1000.4
20260506072543 76 199 4.0 11.0 0.00 0.04 0.00 94 1000.3
20260506072441 76 185 4.0 11.0 0.00 0.04 0.00 94 1000.3
20260506072340 76 182 4.0 11.0 0.00 0.04 0.00 94 1000.3
20260506072238 76 182 4.0 11.0 0.00 0.04 0.00 94 1000.3
20260506072137 76 178 5.0 12.0 0.00 0.04 0.00 94 1000.3
20260506072035 76 189 6.0 12.0 0.00 0.04 0.00 94 1000.2
20260506071933 76 185 6.0 12.0 0.00 0.04 0.00 94 1000.3
20260506071832 76 178 5.0 12.0 0.00 0.04 0.00 94 1000.3
20260506071730 76 179 6.0 12.0 0.00 0.04 0.00 94 1000.3
20260506071631 76 165 6.0 12.0 0.00 0.04 0.00 94 1000.2
20260506071533 76 182 6.0 12.0 0.00 0.04 0.00 94 1000.4
20260506071431 76 164 6.0 12.0 0.00 0.04 0.00 94 1000.3
20260506071330 76 154 6.0 12.0 0.00 0.04 0.00 94 1000.2
20260506071228 76 186 6.0 12.0 0.00 0.04 0.00 94 1000.4
20260506071127 76 196 5.0 10.0 0.00 0.04 0.00 94 1000.3
20260506071025 76 176 5.0 9.0 0.00 0.04 0.00 94 1000.4
20260506070924 76 171 6.0 9.0 0.00 0.04 0.00 94 1000.3
20260506070822 76 195 6.0 10.0 0.00 0.04 0.00 94 1000.4
20260506070720 76 176 6.0 10.0 0.00 0.04 0.00 94 1000.4
20260506070619 76 189 6.0 10.0 0.00 0.04 0.00 94 1000.4
20260506070518 76 162 6.0 10.0 0.00 0.04 0.00 94 1000.4
20260506070416 76 188 6.0 10.0 0.00 0.04 0.00 94 1000.5
20260506070314 76 202 5.0 10.0 0.00 0.04 0.00 94 1000.5
20260506070213 76 168 5.0 10.0 0.00 0.04 0.00 94 1000.4
20260506070111 76 189 6.0 11.0 0.00 0.04 0.00 94 1000.5
20260506062451 76 171 7.0 11.0 0.00 0.04 0.00 93 1000.5
20260506062352 76 159 7.0 11.0 0.00 0.04 0.00 93 1000.6
20260506062252 76 180 7.0 11.0 0.00 0.04 0.00 93 1000.5
20260506062151 76 171 7.0 12.0 0.00 0.04 0.00 93 1000.5
20260506062053 76 185 6.0 12.0 0.00 0.04 0.00 93 1000.6
20260506061952 76 192 6.0 12.0 0.00 0.04 0.00 93 1000.6
20260506061852 76 172 6.0 12.0 0.00 0.04 0.00 93 1000.6
20260506061751 76 164 6.0 12.0 0.00 0.04 0.00 93 1000.6
20260506061652 76 185 7.0 12.0 0.00 0.04 0.00 93 1000.6
20260506061551 76 168 8.0 13.0 0.00 0.04 0.00 93 1000.5
20260506061451 76 186 8.0 13.0 0.00 0.04 0.00 93 1000.6
20260506061352 76 168 7.0 13.0 0.00 0.04 0.00 93 1000.6
20260506061251 76 165 7.0 13.0 0.00 0.04 0.00 93 1000.6
20260506061151 76 172 7.0 13.0 0.00 0.04 0.00 93 1000.5
20260506061051 76 179 7.0 13.0 0.00 0.04 0.00 93 1000.5
20260506060952 76 171 7.0 13.0 0.00 0.04 0.00 93 1000.5
20260506060851 76 169 8.0 13.0 0.00 0.04 0.00 93 1000.5
20260506060751 76 182 9.0 13.0 0.00 0.04 0.00 93 1000.5
20260506060653 76 172 9.0 13.0 0.00 0.04 0.00 93 1000.4
20260506060551 76 161 8.0 13.0 0.00 0.04 0.00 93 1000.5
20260506060451 76 172 6.0 12.0 0.00 0.04 0.00 93 1000.5
20260506060352 76 171 6.0 12.0 0.00 0.04 0.00 93 1000.4
20260506060252 76 164 6.0 12.0 0.00 0.04 0.00 93 1000.5
20260506060151 77 165 7.0 12.0 0.00 0.04 0.00 93 1000.4
20260506051350 77 173 9.0 15.0 0.00 0.05 0.00 92 1000.3
20260506051250 77 151 10.0 15.0 0.00 0.05 0.00 92 1000.3
20260506051152 77 173 10.0 15.0 0.00 0.05 0.00 92 1000.3
20260506051051 77 175 10.0 15.0 0.00 0.05 0.00 92 1000.4
20260506050949 77 171 10.0 15.0 0.00 0.05 0.00 91 1000.4
20260506050850 77 165 9.0 16.0 0.00 0.05 0.00 91 1000.3
20260506050751 77 179 10.0 16.0 0.00 0.05 0.00 91 1000.4
20260506050649 77 141 10.0 16.0 0.00 0.05 0.00 91 1000.5
20260506050548 77 166 9.0 16.0 0.00 0.05 0.00 91 1000.5
20260506050445 77 164 10.0 16.0 0.00 0.05 0.00 91 1000.5
20260506050344 77 172 9.0 16.0 0.00 0.05 0.00 91 1000.5
20260506050244 77 179 9.0 16.0 0.00 0.05 0.00 91 1000.4
20260506050142 77 161 9.0 16.0 0.00 0.05 0.00 91 1000.4
20260506045131 77 165 8.0 12.0 0.00 0.05 0.05 91 1000.5
20260506045031 77 164 6.0 12.0 0.00 0.05 0.05 91 1000.5
20260506044931 77 161 6.0 12.0 0.00 0.05 0.05 91 1000.5
20260506044833 77 182 6.0 12.0 0.00 0.05 0.05 91 1000.5
20260506044732 77 179 6.0 13.0 0.00 0.05 0.05 91 1000.5
20260506044631 77 192 7.0 13.0 0.00 0.05 0.05 91 1000.5
20260506044532 77 166 7.0 13.0 0.00 0.05 0.05 91 1000.6
20260506044433 77 178 7.0 14.0 0.00 0.05 0.05 91 1000.5
20260506044331 77 182 8.0 15.0 0.00 0.05 0.05 91 1000.4
20260506044231 77 165 9.0 15.0 0.00 0.05 0.05 91 1000.4
20260506044132 77 180 9.0 15.0 0.00 0.05 0.05 91 1000.5
20260506044030 77 183 10.0 15.0 0.00 0.05 0.05 91 1000.4
20260506043931 77 171 9.0 15.0 0.00 0.05 0.05 91 1000.4
20260506043830 77 161 8.0 15.0 0.00 0.05 0.05 91 1000.4
20260506043731 77 166 9.0 15.0 0.00 0.05 0.05 91 1000.4
20260506043631 77 164 8.0 15.0 0.00 0.05 0.05 91 1000.4
20260506043532 77 178 9.0 15.0 0.00 0.05 0.05 91 1000.4
20260506043432 77 192 8.0 15.0 0.00 0.05 0.05 91 1000.4
20260506043332 77 173 7.0 15.0 0.00 0.05 0.05 91 1000.3
20260506043232 77 180 8.0 15.0 0.00 0.05 0.05 90 1000.4
20260506043133 77 176 9.0 15.0 0.00 0.05 0.05 90 1000.5
20260506043031 77 164 9.0 15.0 0.00 0.05 0.05 90 1000.5
20260506042929 77 161 9.0 15.0 0.00 0.05 0.05 90 1000.5
20260506042828 77 169 8.0 15.0 0.00 0.05 0.05 90 1000.4
20260506042726 77 172 9.0 15.0 0.00 0.05 0.05 90 1000.4
20260506042624 77 179 10.0 15.0 0.00 0.05 0.05 90 1000.4
20260506042524 77 188 11.0 15.0 0.00 0.05 0.05 90 1000.3
20260506042422 77 154 9.0 15.0 0.00 0.05 0.05 90 1000.3
20260506042321 77 171 6.0 15.0 0.00 0.05 0.05 90 1000.2
20260506042220 77 165 8.0 15.0 0.00 0.05 0.05 90 1000.2
20260506042118 77 189 9.0 15.0 0.00 0.05 0.05 90 1000.3
20260506042016 77 172 10.0 15.0 0.00 0.05 0.05 90 1000.4
20260506041915 77 179 9.0 12.0 0.00 0.05 0.05 90 1000.3
20260506041813 77 158 7.0 12.0 0.00 0.05 0.05 90 1000.3
20260506041712 77 165 8.0 12.0 0.00 0.05 0.05 90 1000.4
20260506041610 77 157 6.0 12.0 0.00 0.05 0.05 90 1000.4
20260506041508 77 183 5.0 11.0 0.00 0.05 0.05 90 1000.4
20260506041407 77 172 5.0 11.0 0.00 0.05 0.05 90 1000.4
20260506041304 77 188 6.0 11.0 0.00 0.05 0.05 90 1000.5
20260506041203 77 172 7.0 12.0 0.00 0.05 0.05 90 1000.6
20260506041103 77 189 7.0 12.0 0.00 0.05 0.05 90 1000.7
20260506041003 77 158 7.0 12.0 0.00 0.05 0.05 90 1000.6
20260506040902 77 196 6.0 12.0 0.00 0.05 0.05 90 1000.7
20260506040803 77 202 5.0 12.0 0.00 0.05 0.05 90 1000.5
20260506040702 77 190 5.0 12.0 0.00 0.05 0.05 90 1000.5
20260506040600 77 179 6.0 12.0 0.00 0.05 0.05 90 1000.6
20260506040455 77 200 6.0 12.0 0.00 0.05 0.05 90 1000.6
20260506040354 77 183 7.0 12.0 0.00 0.05 0.05 90 1000.5
20260506040252 77 209 7.0 14.0 0.00 0.05 0.05 90 1000.5
20260506040151 77 192 7.0 14.0 0.00 0.05 0.05 90 1000.4
20260506040050 77 192 7.0 14.0 0.00 0.05 0.05 90 1000.4
20260506035948 77 188 7.0 14.0 0.00 0.05 0.05 90 1000.3
20260506035849 77 180 8.0 14.0 0.00 0.05 0.05 90 1000.3
20260506035748 78 190 8.0 14.0 0.00 0.05 0.05 90 1000.3
20260506035648 77 186 7.0 14.0 0.00 0.05 0.05 90 1000.4
20260506035548 77 169 7.0 14.0 0.00 0.05 0.05 90 1000.4
20260506035450 77 197 8.0 14.0 0.00 0.05 0.05 90 1000.4
20260506035348 77 188 8.0 14.0 0.00 0.05 0.05 90 1000.4
20260506035247 78 192 7.0 12.0 0.00 0.05 0.05 90 1000.5
20260506035149 78 178 8.0 12.0 0.00 0.05 0.05 90 1000.4
20260506035048 78 159 7.0 12.0 0.00 0.05 0.05 90 1000.4
20260506034948 78 196 5.0 12.0 0.00 0.05 0.05 90 1000.3
20260506034848 78 180 5.0 12.0 0.00 0.05 0.05 90 1000.3
20260506034749 78 166 6.0 12.0 0.00 0.05 0.05 90 1000.2
20260506034649 78 190 7.0 12.0 0.00 0.05 0.05 90 1000.2
20260506034548 78 203 8.0 12.0 0.00 0.05 0.05 90 1000.2
20260506034449 78 209 7.0 13.0 0.00 0.05 0.05 90 1000.3
20260506034348 78 178 5.0 13.0 0.00 0.05 0.05 90 1000.2
20260506034248 78 186 6.0 13.0 0.00 0.05 0.05 90 1000.2
20260506034147 78 182 7.0 13.0 0.00 0.05 0.05 90 1000.2
20260506034049 78 180 8.0 13.0 0.00 0.05 0.05 89 1000.2
20260506033947 78 180 9.0 13.0 0.00 0.05 0.05 89 1000.1
20260506033848 78 186 9.0 13.0 0.00 0.05 0.05 89 1000.1
20260506033748 78 175 8.0 13.0 0.00 0.06 0.05 89 1000.2
20260506033648 78 193 7.0 13.0 0.00 0.06 0.05 89 1000.1
20260506033547 78 200 6.0 13.0 0.00 0.06 0.05 89 1000.1
20260506033447 78 193 6.0 13.0 0.00 0.06 0.05 89 1000.1
20260506033349 78 188 8.0 13.0 0.00 0.06 0.05 89 1000.0
20260506033247 78 186 8.0 13.0 0.00 0.06 0.05 89 1000.0
20260506033147 78 193 7.0 13.0 0.00 0.06 0.05 89 1000.0
20260506033049 78 207 8.0 13.0 0.00 0.06 0.05 89 1000.0
20260506032947 78 179 8.0 13.0 0.00 0.06 0.05 89 1000.0
20260506032848 78 180 8.0 13.0 0.00 0.06 0.05 89 1000.0
20260506032747 78 213 8.0 13.0 0.00 0.06 0.05 89 1000.0
20260506032649 78 207 7.0 14.0 0.00 0.06 0.05 89 999.9
20260506032547 78 182 7.0 14.0 0.00 0.06 0.05 89 1000.0
20260506032448 78 188 8.0 15.0 0.00 0.06 0.05 89 1000.0
20260506032348 78 180 9.0 15.0 0.00 0.06 0.05 89 1000.0
20260506032248 78 172 8.0 15.0 0.00 0.06 0.05 89 1000.0
20260506032149 78 172 8.0 15.0 0.00 0.06 0.05 89 1000.1
20260506032048 78 172 8.0 15.0 0.00 0.06 0.05 89 1000.0
20260506031948 78 180 8.0 15.0 0.00 0.06 0.05 89 1000.1
20260506031847 78 195 9.0 15.0 0.00 0.06 0.05 89 1000.1
20260506031747 78 190 9.0 15.0 0.00 0.06 0.05 89 1000.1
20260506031649 78 186 9.0 15.0 0.00 0.06 0.05 89 1000.2
20260506031547 78 180 7.0 15.0 0.00 0.06 0.05 89 1000.1
20260506031447 78 188 6.0 12.0 0.00 0.06 0.05 89 1000.1
20260506031347 78 182 8.0 12.0 0.00 0.06 0.05 89 1000.2
20260506031248 78 179 7.0 12.0 0.00 0.06 0.05 89 1000.1
20260506031147 78 195 7.0 12.0 0.00 0.06 0.05 88 1000.0
20260506031047 78 193 7.0 12.0 0.00 0.06 0.05 88 1000.0
20260506030949 78 192 7.0 12.0 0.00 0.06 0.05 88 1000.0
20260506030847 78 189 7.0 12.0 0.00 0.06 0.05 88 1000.0
20260506030747 78 196 7.0 12.0 0.00 0.06 0.05 88 999.9
20260506030649 78 188 6.0 12.0 0.00 0.06 0.05 88 1000.0
20260506030547 78 197 8.0 12.0 0.00 0.06 0.05 88 999.9
20260506030447 78 182 8.0 12.0 0.00 0.06 0.05 88 999.9
20260506030347 78 188 7.0 14.0 0.00 0.06 0.05 88 999.9
20260506030248 78 165 8.0 14.0 0.00 0.06 0.05 88 999.8
20260506030147 78 178 7.0 14.0 0.00 0.06 0.05 88 999.7
20260506030047 78 176 7.0 15.0 0.00 0.06 0.05 88 999.8
20260506025948 78 180 7.0 15.0 0.00 0.06 0.05 88 999.8
20260506025847 78 197 7.0 15.0 0.00 0.06 0.05 88 999.9
20260506025747 78 179 7.0 15.0 0.00 0.06 0.05 88 999.8
20260506025646 78 183 7.0 15.0 0.00 0.06 0.05 88 999.8
20260506025548 78 189 8.0 15.0 0.00 0.06 0.05 88 999.7
20260506025447 78 193 9.0 15.0 0.00 0.06 0.05 88 999.8
20260506025346 78 180 9.0 15.0 0.00 0.06 0.05 88 999.7
20260506025247 78 173 9.0 15.0 0.00 0.06 0.05 88 999.7
20260506025148 78 166 8.0 15.0 0.00 0.06 0.05 88 999.7
20260506025046 78 185 8.0 13.0 0.00 0.06 0.05 88 999.7
20260506024947 78 176 9.0 13.0 0.00 0.06 0.05 88 999.7
20260506024848 78 192 9.0 13.0 0.00 0.06 0.05 88 999.7
20260506024746 78 188 8.0 13.0 0.00 0.06 0.05 88 999.6
20260506024646 78 195 8.0 12.0 0.00 0.06 0.05 88 999.6
20260506024547 78 196 8.0 12.0 0.00 0.06 0.05 88 999.7
20260506024446 78 213 8.0 12.0 0.00 0.06 0.05 88 999.6
20260506024346 78 196 7.0 12.0 0.00 0.06 0.05 88 999.7
20260506024246 78 180 7.0 12.0 0.00 0.06 0.05 87 999.7
20260506024147 78 186 7.0 12.0 0.00 0.06 0.05 87 999.7
20260506024046 78 196 6.0 12.0 0.00 0.06 0.05 87 999.7
20260506023947 78 192 6.0 13.0 0.00 0.06 0.05 87 999.6
20260506023848 78 182 7.0 13.0 0.00 0.06 0.05 87 999.6
20260506023746 78 179 7.0 13.0 0.00 0.06 0.05 87 999.6
20260506023646 78 182 8.0 13.0 0.00 0.06 0.05 87 999.5
20260506023546 78 164 8.0 13.0 0.00 0.06 0.05 87 999.5
20260506023447 78 151 8.0 13.0 0.00 0.06 0.05 87 999.5
20260506023346 78 188 8.0 13.0 0.00 0.06 0.05 87 999.4
20260506023246 78 189 7.0 13.0 0.00 0.06 0.05 87 999.3
20260506023147 78 186 9.0 13.0 0.00 0.06 0.05 87 999.3
20260506023046 78 159 9.0 13.0 0.00 0.06 0.05 87 999.2
20260506022946 78 173 7.0 13.0 0.00 0.06 0.05 87 999.2
20260506022846 78 173 8.0 13.0 0.00 0.06 0.05 87 999.2
20260506022747 78 169 8.0 13.0 0.00 0.06 0.05 87 999.2
20260506022646 78 206 8.0 13.0 0.00 0.06 0.05 87 999.1
20260506022546 78 161 9.0 14.0 0.00 0.06 0.05 87 999.1
20260506022447 78 178 8.0 14.0 0.00 0.06 0.05 87 999.1
20260506022345 78 175 8.0 14.0 0.00 0.06 0.05 86 999.1
20260506022246 78 197 7.0 14.0 0.00 0.06 0.05 86 999.1
20260506022147 78 193 8.0 14.0 0.00 0.06 0.05 86 999.0
20260506022047 78 166 8.0 14.0 0.00 0.06 0.05 86 999.1
20260506021946 78 158 7.0 14.0 0.00 0.06 0.05 86 999.1
20260506021845 78 180 8.0 14.0 0.00 0.06 0.05 86 999.0
20260506021747 78 172 8.0 14.0 0.00 0.06 0.05 86 999.0
20260506021646 79 186 7.0 14.0 0.00 0.06 0.05 86 999.0
20260506021547 79 149 9.0 14.0 0.00 0.06 0.05 86 999.0
20260506021447 78 188 10.0 14.0 0.00 0.06 0.05 86 999.0
20260506021346 78 166 9.0 14.0 0.00 0.06 0.05 86 999.0
20260506021246 78 166 8.0 14.0 0.00 0.06 0.05 86 999.1
20260506021145 78 152 9.0 15.0 0.00 0.06 0.05 86 999.0
20260506021047 78 196 8.0 15.0 0.00 0.06 0.05 86 999.1
20260506020946 78 165 6.0 15.0 0.00 0.06 0.05 86 999.1
20260506020846 78 166 6.0 19.0 0.00 0.06 0.05 86 999.0
20260506020745 79 171 7.0 19.0 0.00 0.06 0.05 86 999.0
20260506020647 78 161 6.0 19.0 0.00 0.06 0.05 86 998.9
20260506020545 78 206 6.0 19.0 0.00 0.06 0.05 86 998.9
20260506020446 78 193 7.0 19.0 0.00 0.06 0.05 86 998.9
20260506020346 78 199 8.0 19.0 0.00 0.06 0.05 86 998.9
20260506020246 78 173 8.0 19.0 0.00 0.06 0.05 86 998.9
20260506020145 78 183 9.0 19.0 0.00 0.06 0.05 86 998.9
20260506020046 78 179 11.0 19.0 0.00 0.06 0.05 86 998.8
20260506015945 78 180 11.0 19.0 0.00 0.06 0.05 86 998.9
20260506015846 78 189 11.0 17.0 0.00 0.06 0.05 86 998.9
20260506015746 78 195 10.0 16.0 0.00 0.06 0.05 86 998.8
20260506015646 78 189 8.0 16.0 0.00 0.06 0.05 86 998.8
20260506015545 78 210 7.0 16.0 0.00 0.06 0.05 86 998.7
20260506015445 78 168 9.0 16.0 0.00 0.06 0.05 86 998.7
20260506015347 78 176 10.0 16.0 0.00 0.06 0.05 86 998.7
20260506015245 78 182 9.0 16.0 0.00 0.06 0.05 86 998.8
20260506015145 78 164 7.0 12.0 0.00 0.06 0.05 86 998.7
20260506015045 78 154 8.0 12.0 0.00 0.06 0.05 86 998.7
20260506014946 78 176 8.0 12.0 0.00 0.06 0.05 86 998.7
20260506014846 78 190 8.0 12.0 0.00 0.06 0.05 86 998.6
20260506014745 79 190 8.0 12.0 0.00 0.06 0.05 86 998.6
20260506014646 79 175 8.0 12.0 0.00 0.06 0.05 86 998.7
20260506014545 79 182 7.0 12.0 0.00 0.06 0.05 86 998.6
20260506014445 79 185 7.0 12.0 0.00 0.06 0.05 86 998.6
20260506014345 79 185 8.0 12.0 0.00 0.06 0.05 86 998.6
20260506014246 79 180 7.0 11.0 0.00 0.06 0.05 86 998.6
20260506014145 79 193 7.0 11.0 0.00 0.06 0.05 86 998.6
20260506014046 79 214 7.0 11.0 0.00 0.06 0.05 86 998.6
20260506013946 79 197 7.0 11.0 0.00 0.06 0.05 86 998.6
20260506013845 79 221 7.0 11.0 0.00 0.06 0.05 86 998.6
20260506013745 79 200 7.0 11.0 0.00 0.07 0.05 86 998.6
20260506013644 79 204 6.0 11.0 0.00 0.07 0.05 85 998.6
20260506013546 79 200 7.0 12.0 0.00 0.07 0.05 85 998.6
20260506013445 79 200 7.0 12.0 0.00 0.07 0.05 85 998.6
20260506013345 79 213 6.0 12.0 0.00 0.07 0.05 85 998.7
20260506013246 79 223 5.0 13.0 0.00 0.07 0.05 85 998.6
20260506013145 79 216 5.0 13.0 0.00 0.07 0.05 85 998.6
20260506013045 79 202 6.0 13.0 0.00 0.07 0.05 85 998.6
20260506012947 79 193 6.0 13.0 0.00 0.07 0.05 85 998.6
20260506012846 79 196 6.0 13.0 0.00 0.07 0.05 85 998.6
20260506012745 79 179 8.0 13.0 0.00 0.07 0.05 85 998.7
20260506012644 79 213 8.0 13.0 0.00 0.07 0.05 85 998.6
20260506012546 79 220 7.0 13.0 0.00 0.07 0.05 85 998.6
20260506012445 79 189 7.0 13.0 0.00 0.07 0.05 85 998.6
20260506012344 79 179 8.0 13.0 0.00 0.07 0.05 85 998.5
20260506012244 79 182 8.0 13.0 0.00 0.07 0.05 85 998.5
20260506012146 79 195 8.0 13.0 0.00 0.07 0.05 85 998.4
20260506012045 79 195 7.0 13.0 0.00 0.07 0.05 85 998.4
20260506011944 79 202 8.0 13.0 0.00 0.07 0.05 85 998.4
20260506011846 79 190 8.0 13.0 0.00 0.07 0.05 85 998.5
20260506011745 79 169 8.0 12.0 0.00 0.07 0.05 85 998.3
20260506011644 79 182 7.0 13.0 0.00 0.07 0.05 85 998.4
20260506011544 79 186 6.0 13.0 0.00 0.07 0.05 85 998.4
20260506011445 79 196 6.0 13.0 0.00 0.07 0.05 85 998.3
20260506011345 79 179 6.0 13.0 0.00 0.07 0.05 85 998.2
20260506011245 79 179 6.0 13.0 0.00 0.07 0.05 85 998.2
20260506011145 79 180 7.0 13.0 0.00 0.07 0.05 85 998.3
20260506011045 79 199 6.0 13.0 0.00 0.07 0.05 85 998.3
20260506010944 79 197 6.0 13.0 0.00 0.07 0.05 85 998.3
20260506010844 79 185 8.0 13.0 0.00 0.07 0.05 85 998.3
20260506010745 79 168 9.0 13.0 0.00 0.07 0.05 85 998.3
20260506010644 79 195 9.0 13.0 0.00 0.07 0.05 84 998.3
20260506010544 79 158 9.0 13.0 0.00 0.07 0.05 84 998.3
20260506010444 79 188 8.0 12.0 0.00 0.07 0.05 84 998.3
20260506010344 79 190 7.0 11.0 0.00 0.07 0.05 84 998.2
20260506010244 79 209 8.0 11.0 0.00 0.07 0.05 84 998.2
20260506010145 79 196 7.0 13.0 0.00 0.07 0.05 84 998.2
20260506010046 79 195 6.0 13.0 0.00 0.07 0.05 84 998.2
20260506005944 79 188 7.0 13.0 0.00 0.07 0.05 84 998.2
20260506005844 79 182 8.0 13.0 0.00 0.07 0.05 84 998.3
20260506005745 79 185 7.0 13.0 0.00 0.07 0.05 84 998.2
20260506005644 79 199 7.0 13.0 0.00 0.07 0.05 84 998.3
20260506005544 79 185 8.0 13.0 0.00 0.07 0.05 84 998.1
20260506005445 80 176 7.0 16.0 0.00 0.07 0.05 84 998.1
20260506005344 79 193 8.0 16.0 0.00 0.07 0.05 84 998.1
20260506005244 79 183 8.0 16.0 0.00 0.07 0.05 84 998.1
20260506005144 79 179 8.0 16.0 0.00 0.07 0.05 84 998.1
20260506005045 80 178 9.0 16.0 0.00 0.07 0.05 84 998.1
20260506004943 79 180 9.0 16.0 0.00 0.07 0.05 84 998.1
20260506004844 80 188 9.0 16.0 0.00 0.07 0.05 84 998.0
20260506004746 80 180 8.0 16.0 0.00 0.07 0.05 84 998.1
20260506004645 80 176 9.0 16.0 0.00 0.07 0.05 84 998.1
20260506004544 80 197 10.0 16.0 0.00 0.07 0.05 84 998.2
20260506004445 80 202 8.0 14.0 0.00 0.07 0.05 84 998.1
20260506004345 80 175 7.0 11.0 0.00 0.07 0.05 84 998.2
20260506004244 80 189 7.0 12.0 0.00 0.07 0.05 84 998.1
20260506004143 80 185 7.0 12.0 0.00 0.07 0.05 84 998.1
20260506004044 80 180 6.0 12.0 0.00 0.07 0.05 84 998.1
20260506003944 80 193 6.0 14.0 0.00 0.07 0.05 84 998.1
20260506003844 80 176 6.0 14.0 0.00 0.07 0.05 84 998.0
20260506003744 80 199 5.0 14.0 0.00 0.07 0.05 84 998.0
20260506003644 80 193 5.0 15.0 0.00 0.07 0.05 84 998.0
20260506003543 80 189 6.0 15.0 0.00 0.07 0.05 84 997.9
20260506003443 80 183 7.0 15.0 0.00 0.07 0.05 84 997.9
20260506003341 80 217 8.0 15.0 0.00 0.07 0.05 84 998.0
20260506003240 80 182 8.0 15.0 0.00 0.07 0.05 84 998.0
20260506003138 80 178 9.0 15.0 0.00 0.07 0.05 83 998.0
20260506003038 80 192 9.0 15.0 0.00 0.07 0.05 84 998.0
20260506002934 80 171 8.0 15.0 0.00 0.07 0.05 83 998.0
20260506002834 80 165 9.0 15.0 0.00 0.07 0.05 83 998.0
20260506002731 80 180 10.0 15.0 0.00 0.07 0.05 83 998.0
20260506002631 80 180 10.0 15.0 0.00 0.07 0.05 83 998.0
20260506002532 80 185 10.0 15.0 0.00 0.07 0.05 83 998.1
20260506002431 80 176 9.0 15.0 0.00 0.07 0.05 83 998.1
20260506002331 80 178 6.0 15.0 0.00 0.07 0.05 84 998.1
20260506002231 80 189 7.0 15.0 0.00 0.07 0.05 84 998.0
20260506002132 80 202 8.0 15.0 0.00 0.07 0.05 83 998.1
20260506002031 80 190 7.0 15.0 0.00 0.07 0.05 83 998.1
20260506001931 80 183 8.0 15.0 0.00 0.07 0.05 83 998.1
20260506001832 80 220 7.0 15.0 0.00 0.07 0.05 83 998.1
20260506001731 80 197 6.0 15.0 0.00 0.07 0.05 83 998.0
20260506001630 80 171 7.0 16.0 0.00 0.07 0.05 83 998.1
20260506001532 80 188 9.0 16.0 0.00 0.07 0.05 83 998.2
20260506001432 80 183 8.0 18.0 0.00 0.07 0.05 83 998.2
20260506001331 80 162 6.0 18.0 0.00 0.07 0.05 83 998.0
20260506001231 80 171 6.0 18.0 0.00 0.07 0.05 83 998.0
20260506001132 80 196 7.0 18.0 0.00 0.07 0.05 83 998.1
20260506001032 80 185 9.0 18.0 0.00 0.07 0.05 83 998.0
20260506000931 80 164 8.0 18.0 0.00 0.07 0.05 83 998.1
20260506000832 80 182 9.0 18.0 0.00 0.07 0.05 83 998.1
20260506000731 80 179 11.0 18.0 0.00 0.07 0.05 83 998.1
20260506000631 80 183 11.0 18.0 0.00 0.07 0.05 83 998.0
20260506000532 80 193 11.0 18.0 0.00 0.07 0.05 83 998.0
20260506000432 80 165 10.0 18.0 0.00 0.07 0.05 83 998.0
20260506000331 80 180 8.0 18.0 0.00 0.07 0.05 83 997.9
20260506000231 80 175 10.0 18.0 0.00 0.07 0.05 83 997.9
20260506000133 81 189 9.0 18.0 0.00 0.07 0.05 83 998.0
20260506000032 80 192 7.0 17.0 0.00 0.07 0.05 83 997.8
20260505235931 80 185 10.0 17.0 0.00 0.07 0.05 83 997.8
20260505235832 81 188 12.0 17.0 0.00 0.07 0.05 83 997.8
20260505235733 81 192 12.0 18.0 0.00 0.07 0.05 83 998.0
20260505235631 81 188 9.0 18.0 0.00 0.07 0.05 83 997.7
20260505235531 81 188 8.0 18.0 0.00 0.07 0.05 83 997.8
20260505235431 81 189 8.0 19.0 0.00 0.07 0.05 83 997.8
20260505235331 81 188 8.0 19.0 0.00 0.07 0.05 83 997.9
20260505235230 81 176 8.0 19.0 0.00 0.07 0.05 83 997.8
20260505235132 81 214 9.0 19.0 0.00 0.07 0.05 82 997.8
20260505235031 81 207 10.0 19.0 0.00 0.08 0.05 82 997.9
20260505234930 81 169 13.0 19.0 0.00 0.08 0.05 82 998.0
20260505234828 81 173 12.0 19.0 0.00 0.08 0.05 82 997.9
20260505234727 81 173 12.0 19.0 0.00 0.08 0.05 82 998.0
20260505234626 81 188 12.0 19.0 0.00 0.08 0.05 82 998.0
20260505234524 81 188 11.0 19.0 0.00 0.08 0.05 82 998.0
20260505234423 81 190 11.0 19.0 0.00 0.08 0.05 82 998.0
20260505234321 81 196 12.0 19.0 0.00 0.08 0.05 82 998.0
20260505234220 81 172 12.0 19.0 0.00 0.08 0.05 82 998.0
20260505234118 81 175 12.0 19.0 0.00 0.08 0.05 82 998.0
20260505234015 81 169 11.0 19.0 0.00 0.08 0.05 81 998.0
20260505233914 82 189 11.0 19.0 0.00 0.08 0.05 81 998.0
20260505233813 82 175 11.0 19.0 0.00 0.08 0.05 81 998.0
20260505233712 82 155 10.0 19.0 0.00 0.08 0.05 81 997.8
20260505233610 82 176 11.0 19.0 0.00 0.08 0.05 81 997.9
20260505233509 82 176 12.0 19.0 0.00 0.08 0.05 81 997.9
20260505233407 82 212 12.0 17.0 0.00 0.08 0.05 81 997.9
20260505233306 82 237 13.0 17.0 0.00 0.08 0.05 81 997.9
20260505233204 82 0 10.0 15.0 0.00 0.08 0.05 81 997.8
20260505233103 82 0 10.0 16.0 0.00 0.08 0.05 81 997.8
20260505233003 82 0 10.0 16.0 0.00 0.08 0.05 81 997.8
20260505232902 82 0 10.0 16.0 0.00 0.08 0.05 81 997.7
20260505232803 82 0 9.0 16.0 0.00 0.08 0.05 81 997.8
20260505232702 82 0 9.0 16.0 0.00 0.08 0.05 81 997.7
20260505232602 82 0 9.0 16.0 0.00 0.08 0.05 80 997.6
20260505232502 82 0 9.0 16.0 0.00 0.08 0.05 80 997.7
20260505232403 82 0 8.0 16.0 0.00 0.08 0.05 80 997.7
20260505232305 82 0 9.0 16.0 0.00 0.08 0.05 80 997.7
20260505232203 82 0 10.0 16.0 0.00 0.08 0.05 80 997.6
20260505232103 82 0 11.0 16.0 0.00 0.08 0.05 80 997.6
20260505232003 82 0 11.0 16.0 0.00 0.08 0.05 80 997.7
20260505231900 82 0 9.0 13.0 0.00 0.08 0.05 80 997.6
20260505231755 82 0 7.0 15.0 0.00 0.08 0.05 80 997.7
20260505231655 82 0 8.0 15.0 0.00 0.08 0.05 80 997.6
20260505231550 82 0 8.0 17.0 0.00 0.08 0.05 80 997.7
20260505231450 82 0 6.0 17.0 0.00 0.08 0.05 80 997.7
20260505231347 82 0 6.0 17.0 0.00 0.08 0.05 80 997.7
20260505231246 82 0 7.0 17.0 0.00 0.08 0.05 80 997.7
20260505231144 82 0 8.0 17.0 0.00 0.08 0.05 80 997.8
20260505231043 82 0 8.0 17.0 0.00 0.08 0.05 80 997.7
20260505230942 82 0 9.0 17.0 0.00 0.08 0.05 80 997.6
20260505230841 82 0 9.0 17.0 0.00 0.08 0.05 80 997.8
20260505230742 82 0 11.0 17.0 0.00 0.08 0.05 80 997.7
20260505230643 82 0 11.0 17.0 0.00 0.08 0.05 80 997.7
20260505230541 82 0 8.0 14.0 0.00 0.08 0.05 80 997.7
20260505230442 82 0 6.0 14.0 0.00 0.08 0.05 80 997.7
20260505230341 82 0 8.0 14.0 0.00 0.08 0.05 80 997.7
20260505230241 82 0 8.0 14.0 0.00 0.08 0.05 80 997.7
20260505230141 82 0 5.0 14.0 0.00 0.08 0.05 81 997.7
20260505230042 82 0 5.0 14.0 0.00 0.08 0.05 81 997.7
20260505225942 82 0 5.0 14.0 0.00 0.08 0.05 81 997.7
20260505225841 82 0 6.0 14.0 0.00 0.08 0.05 81 997.7
20260505225742 82 0 7.0 14.0 0.00 0.08 0.05 81 997.8
20260505225642 82 0 8.0 14.0 0.00 0.08 0.05 81 997.7
20260505225542 82 0 9.0 14.0 0.00 0.08 0.05 81 997.8
20260505225441 82 0 8.0 14.0 0.00 0.08 0.05 81 997.8
20260505225341 82 0 8.0 14.0 0.00 0.08 0.05 81 997.8
20260505225242 82 0 9.0 14.0 0.00 0.08 0.05 81 997.8
20260505225141 82 183 8.0 15.0 0.00 0.08 0.05 81 998.0
20260505225041 82 188 8.0 18.0 0.00 0.08 0.05 81 997.9
20260505224942 82 203 9.0 18.0 0.00 0.08 0.05 81 998.0
20260505224841 82 185 7.0 18.0 0.00 0.08 0.05 81 997.9
20260505224741 82 188 6.0 18.0 0.00 0.08 0.05 81 998.0
20260505224641 82 230 8.0 18.0 0.00 0.08 0.05 81 998.0
20260505224543 82 172 9.0 18.0 0.00 0.08 0.05 80 998.0
20260505224441 82 171 8.0 18.0 0.00 0.08 0.05 80 998.0
20260505224341 82 202 8.0 18.0 0.00 0.08 0.05 80 997.9
20260505224243 82 197 10.0 18.0 0.00 0.08 0.05 80 997.9
20260505224142 82 188 11.0 18.0 0.00 0.08 0.05 80 998.0
20260505224041 82 169 10.0 17.0 0.00 0.08 0.05 80 997.9
20260505223941 82 185 10.0 17.0 0.00 0.08 0.05 80 998.0
20260505223842 82 203 11.0 17.0 0.00 0.08 0.05 80 997.9
20260505223742 82 0 10.0 17.0 0.00 0.08 0.05 80 997.9
20260505223641 82 0 11.0 17.0 0.00 0.08 0.05 80 997.9
20260505223542 82 0 10.0 17.0 0.00 0.08 0.05 80 997.9
20260505223441 82 0 8.0 16.0 0.00 0.08 0.05 80 997.8
20260505223341 82 0 7.0 16.0 0.00 0.08 0.05 80 997.8
20260505223242 82 0 7.0 17.0 0.00 0.08 0.05 79 997.7
20260505223141 82 0 7.0 17.0 0.00 0.08 0.05 79 997.7
20260505223041 82 0 6.0 17.0 0.00 0.08 0.05 79 997.7
20260505222940 82 0 6.0 17.0 0.00 0.08 0.05 79 997.8
20260505222842 82 0 7.0 17.0 0.00 0.08 0.05 79 997.7
20260505222740 82 0 8.0 17.0 0.00 0.08 0.05 79 997.8
20260505222641 82 0 9.0 17.0 0.00 0.08 0.05 79 997.8
20260505222540 82 0 9.0 17.0 0.00 0.08 0.05 79 997.8
20260505222441 83 0 10.0 17.0 0.00 0.08 0.05 79 997.9
20260505222340 83 0 11.0 17.0 0.00 0.08 0.05 79 997.9
20260505222242 83 0 11.0 17.0 0.00 0.08 0.05 79 998.0
20260505222142 83 0 11.0 17.0 0.00 0.08 0.05 79 998.0
20260505222040 83 0 10.0 17.0 0.00 0.08 0.05 79 998.0
20260505221941 83 0 11.0 17.0 0.00 0.08 0.05 79 998.0
20260505221840 83 0 11.0 17.0 0.00 0.08 0.05 79 998.0
20260505221741 83 0 10.0 16.0 0.00 0.08 0.05 79 997.9
20260505221640 83 0 7.0 16.0 0.00 0.08 0.05 80 997.9
20260505221540 83 0 6.0 14.0 0.00 0.08 0.05 79 997.9
20260505221442 83 0 8.0 14.0 0.00 0.08 0.05 79 997.9
20260505221341 83 0 7.0 15.0 0.00 0.08 0.05 80 998.0
20260505221240 83 0 6.0 15.0 0.00 0.08 0.05 80 998.0
20260505221142 83 0 7.0 15.0 0.00 0.09 0.05 80 998.0
20260505221040 83 0 7.0 15.0 0.00 0.09 0.05 79 997.9
20260505220941 83 0 7.0 15.0 0.00 0.09 0.05 79 997.9
20260505220840 83 0 6.0 15.0 0.00 0.09 0.05 79 997.9
20260505220742 83 0 6.0 15.0 0.00 0.09 0.05 79 997.9
20260505220640 83 0 7.0 16.0 0.00 0.09 0.05 79 998.0
20260505220540 83 0 9.0 16.0 0.00 0.09 0.05 79 998.0
20260505220442 83 0 7.0 16.0 0.00 0.09 0.05 79 998.0
20260505220340 83 0 6.0 16.0 0.00 0.09 0.05 80 998.1
20260505220240 83 0 6.0 16.0 0.00 0.09 0.05 79 998.0
20260505220140 83 0 7.0 16.0 0.00 0.09 0.05 80 998.1
20260505220042 83 0 11.0 16.0 0.00 0.09 0.05 79 998.1
20260505215941 83 0 11.0 16.0 0.00 0.09 0.05 79 998.1
20260505215840 83 0 11.0 16.0 0.00 0.09 0.05 79 998.2
20260505215741 83 0 9.0 16.0 0.00 0.09 0.05 79 998.1
20260505215640 83 0 8.0 16.0 0.00 0.09 0.05 79 998.1
20260505215540 83 0 8.0 16.0 0.00 0.09 0.05 79 998.1
20260505215440 83 0 10.0 16.0 0.00 0.09 0.05 79 998.1
20260505215341 83 0 11.0 16.0 0.00 0.09 0.05 79 998.0
20260505215240 83 0 11.0 16.0 0.00 0.09 0.05 79 998.0
20260505215141 83 0 7.0 16.0 0.00 0.09 0.05 79 998.1
20260505215041 83 0 7.0 16.0 0.00 0.09 0.05 79 998.0
20260505214941 83 0 7.0 17.0 0.00 0.09 0.05 79 998.2
20260505214841 83 0 7.0 17.0 0.00 0.09 0.05 79 998.1
20260505214741 83 0 7.0 17.0 0.00 0.09 0.05 79 998.2
20260505214641 83 0 7.0 17.0 0.00 0.09 0.05 79 998.1
20260505214540 83 0 8.0 17.0 0.00 0.09 0.05 79 998.2
20260505214439 83 0 9.0 17.0 0.00 0.09 0.05 79 998.2
20260505214341 83 0 10.0 17.0 0.00 0.09 0.05 79 998.2
20260505214240 83 0 11.0 17.0 0.00 0.09 0.05 79 998.3
20260505214139 83 0 11.0 17.0 0.00 0.09 0.05 79 998.4
20260505214039 83 0 9.0 17.0 0.00 0.09 0.05 79 998.4
20260505213940 83 0 6.0 16.0 0.00 0.09 0.05 80 998.4
20260505213840 83 0 6.0 20.0 0.00 0.09 0.05 79 998.4
20260505213739 83 0 5.0 20.0 0.00 0.09 0.05 80 998.4
20260505213640 83 0 5.0 20.0 0.00 0.09 0.05 79 998.4
20260505213540 83 0 6.0 20.0 0.00 0.09 0.05 79 998.4
20260505213440 83 0 6.0 20.0 0.00 0.09 0.05 79 998.4
20260505213339 83 0 6.0 20.0 0.00 0.09 0.05 79 998.4
20260505213240 83 0 8.0 20.0 0.00 0.09 0.05 79 998.4
20260505213139 83 0 10.0 20.0 0.00 0.09 0.05 79 998.5
20260505213039 83 0 12.0 20.0 0.00 0.09 0.05 79 998.5
20260505212941 83 0 11.0 18.0 0.00 0.09 0.05 79 998.7
20260505212839 83 0 10.0 15.0 0.00 0.09 0.05 79 998.6
20260505212739 83 0 9.0 15.0 0.00 0.09 0.05 79 998.6
20260505212639 83 0 7.0 15.0 0.00 0.09 0.05 79 998.6
20260505212539 83 0 7.0 16.0 0.00 0.09 0.05 79 998.6
20260505212439 83 0 8.0 17.0 0.00 0.09 0.05 79 998.6
20260505212339 83 0 8.0 17.0 0.00 0.09 0.05 79 998.7
20260505212242 83 0 7.0 17.0 0.00 0.09 0.05 79 998.8
20260505212139 83 0 7.0 17.0 0.00 0.09 0.05 79 998.6
20260505212039 83 0 7.0 17.0 0.00 0.09 0.05 79 998.7
20260505211941 83 0 7.0 17.0 0.00 0.09 0.05 79 998.7
20260505211839 83 0 9.0 17.0 0.00 0.09 0.05 79 998.7
20260505211739 83 0 10.0 17.0 0.00 0.09 0.05 79 998.7
20260505211639 83 0 11.0 17.0 0.00 0.09 0.05 78 998.7
20260505211541 83 0 10.0 17.0 0.00 0.09 0.05 79 998.8
20260505211439 83 0 9.0 17.0 0.00 0.09 0.05 79 998.8
20260505211339 84 0 9.0 17.0 0.00 0.09 0.05 79 998.7
20260505211240 84 0 9.0 17.0 0.00 0.09 0.05 79 998.8
20260505211138 84 0 9.0 15.0 0.00 0.09 0.05 79 998.7
20260505211040 84 0 7.0 15.0 0.00 0.09 0.05 79 998.6
20260505210939 84 0 7.0 15.0 0.00 0.09 0.05 79 998.6
20260505210840 84 0 7.0 15.0 0.00 0.09 0.05 79 998.7
20260505210738 84 0 9.0 15.0 0.00 0.09 0.05 79 998.6
20260505210638 84 0 7.0 13.0 0.00 0.09 0.05 80 998.6
20260505210538 83 0 5.0 12.0 0.00 0.09 0.05 80 998.6
20260505210439 83 0 5.0 12.0 0.00 0.09 0.05 79 998.6
20260505210340 83 0 6.0 13.0 0.00 0.09 0.05 79 998.7
20260505210240 83 0 7.0 17.0 0.00 0.09 0.05 79 998.6
20260505210140 83 0 7.0 17.0 0.00 0.09 0.05 78 998.7
20260505210039 83 0 7.0 17.0 0.00 0.09 0.05 78 998.8
20260505205936 83 0 7.0 17.0 0.00 0.09 0.05 78 998.8
20260505205835 83 0 7.0 20.0 0.00 0.09 0.05 78 998.8
20260505205733 83 0 7.0 20.0 0.00 0.09 0.05 78 998.8
20260505205632 83 0 8.0 20.0 0.00 0.10 0.05 78 998.8
20260505205532 83 0 8.0 20.0 0.00 0.10 0.05 79 998.8
20260505205430 83 0 9.0 20.0 0.00 0.10 0.05 79 998.8
20260505205332 83 0 10.0 20.0 0.00 0.10 0.05 78 998.8
20260505205231 83 0 9.0 20.0 0.00 0.10 0.05 78 998.9
20260505205131 83 0 9.0 20.0 0.00 0.10 0.05 78 998.8
20260505205031 83 0 10.0 20.0 0.00 0.10 0.05 78 998.9
20260505204932 83 0 8.0 20.0 0.00 0.10 0.05 79 998.9
20260505204831 83 0 7.0 18.0 0.00 0.10 0.05 78 998.8
20260505204731 84 0 8.0 18.0 0.00 0.10 0.05 78 998.9
20260505204632 84 0 9.0 18.0 0.00 0.10 0.05 78 998.8
20260505204531 84 0 10.0 18.0 0.00 0.10 0.05 78 999.0
20260505204431 84 0 10.0 18.0 0.00 0.10 0.05 78 998.9
20260505204332 84 0 9.0 16.0 0.00 0.10 0.05 78 998.9
20260505204232 84 0 7.0 16.0 0.00 0.10 0.05 78 999.0
20260505204131 84 0 8.0 16.0 0.00 0.10 0.05 78 998.9
20260505204031 84 0 9.0 16.0 0.00 0.10 0.05 78 999.0
20260505203932 84 0 8.0 16.0 0.00 0.10 0.05 79 999.0
20260505203831 84 0 8.0 16.0 0.00 0.10 0.05 78 999.0
20260505203731 84 0 8.0 16.0 0.00 0.10 0.05 78 999.0
20260505203633 84 0 9.0 16.0 0.00 0.10 0.05 79 999.0
20260505203532 84 0 8.0 16.0 0.00 0.10 0.05 79 999.0
20260505203432 84 0 8.0 12.0 0.00 0.10 0.05 79 999.0
20260505203331 84 0 8.0 12.0 0.00 0.10 0.05 79 999.1
20260505203232 83 0 7.0 13.0 0.00 0.10 0.05 79 999.1
20260505203131 83 0 7.0 13.0 0.00 0.10 0.05 79 999.2
20260505203030 83 0 7.0 16.0 0.00 0.10 0.05 79 999.2
20260505202932 83 0 7.0 16.0 0.00 0.10 0.05 79 999.2
20260505202831 83 0 8.0 16.0 0.00 0.10 0.05 79 999.3
20260505202731 83 0 8.0 16.0 0.00 0.10 0.05 79 999.2
20260505202631 83 0 8.0 16.0 0.00 0.10 0.05 79 999.2
20260505202531 83 0 7.0 16.0 0.00 0.10 0.05 79 999.2
20260505202431 83 0 9.0 16.0 0.00 0.10 0.05 79 999.2
20260505202331 83 0 9.0 16.0 0.00 0.10 0.05 79 999.3
20260505202232 83 0 10.0 16.0 0.00 0.10 0.05 79 999.2
20260505202131 83 0 9.0 16.0 0.00 0.10 0.05 79 999.2
20260505202030 83 0 7.0 16.0 0.00 0.10 0.05 80 999.2
20260505201932 83 0 8.0 16.0 0.00 0.10 0.05 79 999.2
20260505201832 83 0 9.0 16.0 0.00 0.10 0.05 79 999.2
20260505201731 83 0 10.0 16.0 0.00 0.10 0.05 79 999.2
20260505201631 83 0 11.0 16.0 0.00 0.10 0.05 79 999.3
20260505201532 83 0 11.0 16.0 0.00 0.10 0.05 79 999.4
20260505201432 83 0 10.0 17.0 0.00 0.10 0.05 79 999.4
20260505201331 83 0 8.0 17.0 0.00 0.10 0.05 80 999.4
20260505201233 83 0 7.0 17.0 0.00 0.10 0.05 80 999.3
20260505201131 83 0 8.0 17.0 0.00 0.10 0.05 80 999.4
20260505201030 83 0 8.0 17.0 0.00 0.10 0.05 80 999.3
20260505200931 83 0 9.0 17.0 0.00 0.10 0.05 79 999.5
20260505200832 83 0 10.0 17.0 0.00 0.10 0.05 80 999.5
20260505200731 83 0 9.0 17.0 0.00 0.10 0.05 80 999.6
20260505200632 83 0 10.0 17.0 0.00 0.10 0.05 79 999.5
20260505200532 83 0 10.0 17.0 0.00 0.10 0.05 79 999.6
20260505200432 83 0 9.0 14.0 0.00 0.10 0.05 79 999.5
20260505200331 83 0 7.0 13.0 0.00 0.10 0.05 80 999.5
20260505200233 83 0 5.0 13.0 0.00 0.10 0.05 80 999.5
20260505200131 83 0 5.0 13.0 0.00 0.10 0.05 80 999.5
20260505200031 83 0 7.0 13.0 0.00 0.10 0.05 80 999.6
20260505195932 83 0 9.0 13.0 0.00 0.10 0.05 80 999.7
20260505195832 83 0 7.0 13.0 0.00 0.10 0.05 80 999.6
20260505195731 83 0 8.0 13.0 0.00 0.10 0.05 80 999.7
20260505195631 83 0 7.0 13.0 0.00 0.10 0.05 80 999.7
20260505195533 83 0 5.0 12.0 0.00 0.10 0.05 80 999.7
20260505195432 83 0 6.0 12.0 0.00 0.10 0.05 80 999.8
20260505195330 83 0 6.0 12.0 0.00 0.10 0.05 80 999.8
20260505195230 83 0 7.0 16.0 0.00 0.10 0.05 80 999.9
20260505195128 83 0 7.0 16.0 0.00 0.10 0.05 80 999.9
20260505195026 83 0 8.0 16.0 0.00 0.10 0.05 80 999.8
20260505194925 83 0 6.0 16.0 0.00 0.10 0.05 81 999.8
20260505194823 83 0 6.0 16.0 0.00 0.10 0.05 81 999.8
20260505194721 83 0 5.0 17.0 0.00 0.10 0.05 80 999.8
20260505194620 83 0 6.0 20.0 0.00 0.10 0.05 80 999.9
20260505194518 83 0 7.0 20.0 0.00 0.10 0.05 80 999.9
20260505194416 83 0 9.0 20.0 0.00 0.10 0.05 80 999.9
20260505194305 83 0 10.0 21.0 0.00 0.10 0.05 80 1000.0
20260505194204 83 0 9.0 21.0 0.00 0.10 0.05 80 999.9
20260505194103 82 0 8.0 21.0 0.00 0.10 0.05 80 999.9
20260505194003 82 0 9.0 21.0 0.00 0.10 0.05 80 1000.0
20260505193904 82 0 10.0 21.0 0.00 0.10 0.05 80 999.9
20260505193802 82 0 12.0 21.0 0.00 0.10 0.05 80 999.8
20260505193702 82 0 12.0 21.0 0.00 0.10 0.05 80 999.9
20260505193602 83 0 11.0 21.0 0.00 0.10 0.05 80 999.9
20260505193505 83 0 11.0 21.0 0.00 0.10 0.05 80 1000.0
20260505193402 83 0 9.0 21.0 0.00 0.10 0.05 80 999.9
20260505193302 83 0 8.0 16.0 0.00 0.11 0.05 80 999.9
20260505193203 83 0 10.0 16.0 0.00 0.11 0.05 80 1000.0
20260505193102 83 0 8.0 16.0 0.00 0.11 0.05 80 999.9
20260505193002 83 0 7.0 16.0 0.00 0.11 0.05 80 999.9
20260505192904 83 0 7.0 16.0 0.00 0.11 0.05 80 999.8
20260505192802 83 0 8.0 16.0 0.00 0.11 0.05 80 999.9
20260505192702 82 0 8.0 16.0 0.00 0.11 0.05 80 999.9
20260505192602 83 0 9.0 16.0 0.00 0.11 0.05 80 999.9
20260505192504 83 0 9.0 16.0 0.00 0.11 0.05 80 999.9
20260505192402 83 0 8.0 16.0 0.00 0.11 0.05 80 999.9
20260505192305 83 0 9.0 16.0 0.00 0.11 0.05 80 999.9
20260505192203 83 0 9.0 16.0 0.00 0.11 0.05 80 999.8
20260505192102 83 0 9.0 16.0 0.00 0.11 0.05 80 999.9
20260505192002 83 0 8.0 14.0 0.00 0.11 0.05 80 999.9
20260505191902 83 0 8.0 13.0 0.00 0.11 0.05 80 999.9
20260505191802 83 0 8.0 13.0 0.00 0.11 0.05 81 999.8
20260505191702 83 0 6.0 13.0 0.00 0.11 0.05 81 999.8
20260505191602 83 0 6.0 13.0 0.00 0.11 0.05 81 999.8
20260505191504 83 0 6.0 13.0 0.00 0.11 0.05 81 999.9
20260505191402 83 0 5.0 14.0 0.00 0.11 0.05 81 999.9
20260505191300 83 0 6.0 14.0 0.00 0.11 0.05 81 999.8
20260505191158 83 0 7.0 14.0 0.00 0.11 0.05 81 1000.0
20260505191057 83 0 6.0 14.0 0.00 0.11 0.05 81 999.9
20260505190955 82 0 5.0 14.0 0.00 0.11 0.05 82 999.9
20260505190855 82 0 4.0 14.0 0.00 0.11 0.05 82 999.9
20260505190753 82 0 5.0 14.0 0.00 0.11 0.05 81 999.9
20260505190650 82 0 8.0 14.0 0.00 0.11 0.05 81 1000.0
20260505190549 82 0 9.0 15.0 0.00 0.11 0.05 81 999.9
20260505190448 82 0 8.0 15.0 0.00 0.11 0.05 82 1000.0
20260505190345 82 0 7.0 15.0 0.00 0.11 0.05 82 1000.0
20260505190246 82 0 6.0 15.0 0.00 0.11 0.05 82 999.9
20260505190140 82 0 6.0 15.0 0.00 0.11 0.05 82 1000.0
20260505190039 82 0 6.0 20.0 0.00 0.11 0.05 82 1000.1
20260505185936 82 0 6.0 20.0 0.00 0.11 0.05 82 1000.0
20260505185836 82 0 8.0 20.0 0.00 0.11 0.05 82 1000.1
20260505185737 82 0 9.0 20.0 0.00 0.11 0.05 82 1000.1
20260505185637 82 0 9.0 20.0 0.00 0.11 0.05 82 1000.2
20260505185536 82 0 8.0 20.0 0.00 0.11 0.05 82 1000.2
20260505185436 81 0 9.0 20.0 0.00 0.11 0.05 82 1000.2
20260505185337 81 0 8.0 20.0 0.00 0.11 0.05 82 1000.2
20260505185235 81 0 9.0 20.0 0.00 0.11 0.05 82 1000.2
20260505185136 81 0 10.0 20.0 0.00 0.11 0.05 83 1000.2
20260505185037 81 0 9.0 14.0 0.00 0.11 0.05 83 1000.3
20260505184936 81 0 9.0 14.0 0.00 0.11 0.05 83 1000.2
20260505184836 81 0 7.0 14.0 0.00 0.11 0.05 83 1000.2
20260505184736 81 0 7.0 14.0 0.00 0.11 0.05 83 1000.2
20260505184636 81 0 8.0 15.0 0.00 0.11 0.05 83 1000.2
20260505184536 81 0 7.0 15.0 0.00 0.11 0.05 84 1000.2
20260505184436 81 0 5.0 15.0 0.00 0.11 0.05 84 1000.3
20260505184335 81 0 6.0 15.0 0.01 0.11 0.05 84 1000.3
20260505184236 81 0 6.0 15.0 0.01 0.11 0.05 84 1000.4
20260505184136 81 0 5.0 15.0 0.01 0.11 0.05 84 1000.4
20260505184036 81 0 6.0 15.0 0.01 0.11 0.05 84 1000.3
20260505183935 81 0 7.0 15.0 0.01 0.11 0.05 84 1000.4
20260505183835 81 0 7.0 15.0 0.01 0.11 0.05 84 1000.5
20260505183736 81 0 7.0 15.0 0.01 0.11 0.05 84 1000.5
20260505183635 81 0 9.0 15.0 0.01 0.11 0.05 84 1000.5
20260505183536 81 0 10.0 15.0 0.01 0.11 0.05 84 1000.5
20260505183435 81 0 9.0 15.0 0.01 0.11 0.05 84 1000.5
20260505183336 81 0 7.0 15.0 0.01 0.11 0.05 84 1000.7
20260505183237 81 0 7.0 15.0 0.01 0.11 0.05 84 1000.5
20260505183135 81 0 7.0 15.0 0.01 0.11 0.05 84 1000.5
20260505183037 81 0 7.0 15.0 0.01 0.11 0.05 84 1000.3
20260505182935 81 0 8.0 15.0 0.01 0.11 0.05 84 1000.5
20260505182835 81 0 7.0 15.0 0.01 0.11 0.05 84 1000.5
20260505182736 81 0 6.0 15.0 0.01 0.11 0.05 84 1000.4
20260505182635 81 0 7.0 15.0 0.01 0.11 0.05 84 1000.4
20260505182537 81 0 9.0 15.0 0.01 0.11 0.05 84 1000.4
20260505182435 81 0 8.0 15.0 0.01 0.11 0.05 84 1000.5
20260505182335 81 0 8.0 13.0 0.01 0.11 0.05 84 1000.5
20260505182236 81 0 8.0 13.0 0.01 0.11 0.05 84 1000.5
20260505182135 81 0 7.0 12.0 0.01 0.11 0.05 85 1000.5
20260505182035 81 0 6.0 12.0 0.01 0.11 0.05 85 1000.5
20260505181935 80 0 6.0 12.0 0.01 0.12 0.05 85 1000.5
20260505181837 80 0 6.0 14.0 0.01 0.12 0.05 85 1000.5
20260505181735 80 0 4.0 14.0 0.01 0.12 0.05 85 1000.5
20260505181634 80 0 4.0 14.0 0.01 0.12 0.05 85 1000.5
20260505181536 80 0 6.0 14.0 0.01 0.12 0.05 85 1000.5
20260505181435 80 0 7.0 14.0 0.01 0.12 0.05 85 1000.5
20260505181335 80 0 7.0 14.0 0.01 0.12 0.05 85 1000.5
20260505181235 80 0 8.0 14.0 0.01 0.12 0.05 85 1000.5
20260505181136 80 0 8.0 14.0 0.01 0.12 0.05 85 1000.5
20260505181035 80 0 8.0 14.0 0.01 0.12 0.05 85 1000.6
20260505180935 80 0 9.0 14.0 0.01 0.12 0.05 85 1000.6
20260505180836 80 0 8.0 14.0 0.01 0.12 0.05 85 1000.6
20260505180735 80 0 6.0 13.0 0.01 0.12 0.05 85 1000.6
20260505180635 80 0 7.0 13.0 0.01 0.12 0.05 85 1000.5
20260505180536 80 0 7.0 13.0 0.01 0.12 0.05 85 1000.6
20260505180437 80 0 7.0 13.0 0.01 0.12 0.05 85 1000.6
20260505180336 80 0 7.0 12.0 0.01 0.12 0.05 85 1000.5
20260505180233 80 0 7.0 12.0 0.01 0.12 0.05 85 1000.6
20260505180136 80 0 7.0 15.0 0.01 0.12 0.05 85 1000.6
20260505180036 80 0 7.0 15.0 0.01 0.12 0.05 85 1000.6
20260505175935 80 0 7.0 15.0 0.01 0.12 0.05 85 1000.6
20260505175835 80 0 7.0 15.0 0.01 0.12 0.05 85 1000.7
20260505175736 80 0 8.0 15.0 0.01 0.12 0.05 85 1000.7
20260505175635 80 0 8.0 15.0 0.01 0.12 0.05 85 1000.7
20260505175534 80 0 7.0 15.0 0.01 0.12 0.05 86 1000.7
20260505175436 80 0 6.0 15.0 0.01 0.12 0.05 86 1000.7
20260505175334 80 0 7.0 15.0 0.01 0.12 0.05 85 1000.7
20260505175235 80 0 9.0 15.0 0.01 0.12 0.05 85 1000.7
20260505175134 80 0 10.0 14.0 0.01 0.12 0.05 85 1000.7
20260505175035 80 0 10.0 14.0 0.01 0.12 0.05 85 1000.7
20260505174934 80 0 9.0 14.0 0.01 0.12 0.05 86 1000.8
20260505174835 80 0 9.0 14.0 0.01 0.12 0.05 86 1000.7
20260505174735 80 0 7.0 14.0 0.01 0.12 0.05 86 1000.7
20260505174634 79 0 7.0 17.0 0.01 0.12 0.05 86 1000.7
20260505174534 79 0 8.0 17.0 0.01 0.12 0.05 87 1000.8
20260505174432 79 217 6.0 17.0 0.01 0.12 0.05 87 1000.7
20260505174330 79 193 6.0 17.0 0.00 0.11 0.04 87 1000.6
20260505174230 79 199 7.0 17.0 0.00 0.11 0.04 86 1000.7
20260505174127 79 192 8.0 17.0 0.00 0.11 0.04 86 1000.7
20260505174026 79 212 9.0 17.0 0.00 0.11 0.04 86 1000.8
20260505173925 79 199 8.0 17.0 0.00 0.11 0.04 86 1000.8
20260505173822 79 190 8.0 17.0 0.00 0.11 0.04 86 1000.8
20260505173720 79 204 7.0 17.0 0.00 0.11 0.04 86 1000.7
20260505173618 79 213 7.0 15.0 0.00 0.11 0.04 86 1000.7
20260505173517 79 212 9.0 15.0 0.00 0.11 0.04 86 1000.8
20260505173416 79 189 9.0 15.0 0.00 0.11 0.04 86 1000.8
20260505173314 79 179 8.0 15.0 0.00 0.11 0.04 86 1000.8
20260505173213 79 197 9.0 15.0 0.00 0.11 0.04 86 1000.8
20260505173111 79 188 11.0 15.0 0.00 0.11 0.04 86 1000.8
20260505173010 80 0 9.0 15.0 0.00 0.11 0.04 86 1000.8
20260505172908 80 0 6.0 11.0 0.00 0.11 0.04 86 1000.8
20260505172807 80 0 5.0 12.0 0.00 0.11 0.04 86 1000.8
20260505172704 79 0 5.0 12.0 0.00 0.11 0.04 87 1000.8
20260505172603 79 0 6.0 12.0 0.00 0.11 0.04 87 1000.8
20260505172504 79 0 5.0 12.0 0.00 0.11 0.04 87 1000.8
20260505172402 79 0 5.0 12.0 0.00 0.11 0.04 87 1000.8
20260505172301 79 0 4.0 12.0 0.00 0.11 0.04 87 1000.8
20260505172203 79 0 5.0 12.0 0.00 0.11 0.04 87 1000.9
20260505172102 79 0 7.0 12.0 0.00 0.11 0.04 87 1000.8
20260505172004 79 0 6.0 12.0 0.00 0.11 0.04 87 1001.0
20260505171904 79 0 5.0 11.0 0.00 0.11 0.04 87 1000.9
20260505171802 79 0 6.0 11.0 0.00 0.11 0.04 88 1000.9
20260505171702 79 0 6.0 11.0 0.00 0.11 0.04 88 1000.8
20260505171603 78 206 6.0 11.0 0.00 0.11 0.04 88 1000.9
20260505171504 78 185 6.0 9.0 0.00 0.11 0.04 88 1000.9
20260505171402 78 0 4.0 9.0 0.00 0.11 0.04 88 1001.0
20260505171302 78 217 4.0 12.0 0.00 0.11 0.04 88 1000.9
20260505171203 78 224 5.0 12.0 0.00 0.12 0.04 88 1001.0
20260505171103 78 199 6.0 13.0 0.00 0.12 0.04 88 1001.0
20260505170950 78 245 6.0 13.0 0.00 0.12 0.04 88 1001.0
20260505170848 78 214 6.0 13.0 0.00 0.12 0.04 88 1001.0
20260505170747 78 193 6.0 13.0 0.00 0.12 0.04 88 1001.0
20260505170646 78 183 5.0 13.0 0.00 0.12 0.04 88 1001.1
20260505170544 78 214 5.0 13.0 0.00 0.12 0.04 88 1001.0
20260505170439 78 213 6.0 13.0 0.00 0.12 0.04 88 1001.1
20260505170337 78 224 6.0 13.0 0.00 0.12 0.04 88 1001.1
20260505170236 78 196 6.0 13.0 0.00 0.12 0.04 88 1001.1
20260505170134 78 203 6.0 12.0 0.00 0.12 0.04 88 1001.1
20260505170035 78 203 7.0 12.0 0.00 0.12 0.04 88 1001.1
20260505165933 78 202 7.0 11.0 0.00 0.12 0.04 88 1001.1
20260505165833 78 220 6.0 11.0 0.00 0.12 0.04 88 1001.0
20260505165733 78 196 4.0 10.0 0.00 0.12 0.04 88 1001.0
20260505165633 78 193 4.0 10.0 0.00 0.12 0.04 88 1001.1
20260505165534 78 199 5.0 10.0 0.00 0.12 0.04 88 1001.0
20260505165434 78 192 6.0 10.0 0.00 0.12 0.04 88 1001.0
20260505165333 78 203 5.0 10.0 0.00 0.12 0.04 88 1001.0
20260505165234 78 178 5.0 10.0 0.00 0.12 0.04 88 1000.9
20260505165133 78 196 6.0 10.0 0.00 0.12 0.04 88 1000.9
20260505165033 78 182 7.0 10.0 0.00 0.12 0.04 88 1001.0
20260505164933 78 0 6.0 11.0 0.00 0.12 0.04 88 1000.9
20260505164834 78 185 6.0 11.0 0.00 0.12 0.04 88 1001.0
20260505164733 78 221 6.0 11.0 0.00 0.12 0.04 88 1000.9
20260505164633 78 188 6.0 11.0 0.00 0.12 0.04 88 1001.0
20260505164534 78 197 6.0 11.0 0.00 0.12 0.04 88 1001.0
20260505164433 78 193 5.0 11.0 0.00 0.12 0.04 88 1001.0
20260505164334 78 0 4.0 11.0 0.00 0.12 0.04 88 1001.0
20260505164233 78 0 5.0 11.0 0.00 0.12 0.04 88 1001.1
20260505164133 78 0 6.0 11.0 0.00 0.12 0.04 88 1001.0
20260505164033 78 0 6.0 11.0 0.00 0.12 0.04 88 1001.0
20260505163932 78 0 7.0 13.0 0.00 0.12 0.04 88 1001.0
20260505163834 78 0 6.0 13.0 0.00 0.12 0.04 89 1001.0
20260505163732 78 0 6.0 13.0 0.00 0.12 0.04 89 1001.1
20260505163633 78 0 6.0 13.0 0.00 0.12 0.04 89 1001.0
20260505163532 78 0 5.0 13.0 0.00 0.12 0.04 89 1001.0
20260505163435 78 0 6.0 13.0 0.00 0.12 0.04 89 1001.1
20260505163333 78 0 7.0 13.0 0.00 0.12 0.04 89 1000.9
20260505163232 78 0 6.0 13.0 0.00 0.12 0.04 89 1001.0
20260505163133 78 0 7.0 13.0 0.00 0.12 0.04 89 1000.9
20260505163032 78 0 7.0 13.0 0.00 0.12 0.04 89 1001.0
20260505162933 78 0 7.0 12.0 0.00 0.12 0.04 89 1001.1
20260505162832 78 0 7.0 12.0 0.00 0.12 0.04 89 1001.0
20260505162733 78 0 6.0 12.0 0.00 0.12 0.04 89 1001.0
20260505162632 78 0 5.0 12.0 0.00 0.12 0.04 89 1001.0
20260505162532 78 0 6.0 12.0 0.00 0.12 0.04 89 1000.9
20260505162433 78 0 7.0 12.0 0.00 0.12 0.04 89 1001.0
20260505162332 78 0 7.0 12.0 0.00 0.12 0.04 89 1001.0
20260505162233 78 0 7.0 12.0 0.00 0.12 0.04 90 1001.0
20260505162132 78 0 7.0 12.0 0.00 0.12 0.04 90 1001.1
20260505162033 77 206 7.0 14.0 0.00 0.12 0.04 90 1001.0
20260505161932 77 230 6.0 14.0 0.00 0.12 0.04 90 1001.0
20260505161830 77 0 5.0 14.0 0.00 0.12 0.04 90 1001.0
20260505161731 77 0 5.0 14.0 0.00 0.12 0.04 90 1000.9
20260505161633 77 0 5.0 14.0 0.00 0.12 0.04 90 1001.0
20260505161531 77 0 4.0 14.0 0.00 0.12 0.04 90 1001.0
20260505161430 77 219 5.0 14.0 0.00 0.12 0.04 90 1000.9
20260505161330 77 206 6.0 14.0 0.00 0.12 0.04 90 1000.9
20260505161229 77 206 6.0 14.0 0.00 0.12 0.04 90 1000.9
20260505161126 77 189 6.0 14.0 0.00 0.13 0.04 90 1000.8
20260505161025 77 178 7.0 13.0 0.00 0.13 0.04 90 1000.9
20260505160923 77 173 8.0 13.0 0.00 0.13 0.04 90 1000.8
20260505160822 77 203 6.0 13.0 0.00 0.13 0.04 90 1000.7
20260505160720 77 193 4.0 13.0 0.00 0.13 0.04 90 1000.9
20260505160620 77 217 4.0 13.0 0.00 0.13 0.04 90 1000.8
20260505160515 77 221 6.0 13.0 0.00 0.13 0.04 90 1000.8
20260505160414 77 207 6.0 13.0 0.00 0.13 0.04 90 1000.8
20260505160313 77 197 6.0 11.0 0.00 0.13 0.04 90 1000.9
20260505160211 77 185 6.0 11.0 0.00 0.13 0.04 90 1000.9
20260505160110 77 178 7.0 10.0 0.00 0.13 0.04 90 1000.9
20260505153303 76 151 7.0 15.0 0.00 0.13 0.04 91 1000.8
20260505153203 76 172 7.0 15.0 0.00 0.13 0.04 91 1000.7
20260505153102 76 173 6.0 15.0 0.00 0.13 0.04 91 1000.8
20260505153003 76 227 9.0 15.0 0.00 0.13 0.04 91 1000.8
20260505152903 76 180 9.0 15.0 0.00 0.13 0.04 91 1000.8
20260505152802 76 186 8.0 15.0 0.00 0.13 0.04 91 1000.7
20260505152702 76 196 7.0 15.0 0.00 0.13 0.04 91 1000.8
20260505152604 76 185 7.0 15.0 0.00 0.13 0.04 91 1000.7
20260505152503 76 192 9.0 15.0 0.00 0.13 0.04 91 1000.7
20260505152403 76 178 7.0 15.0 0.00 0.13 0.04 91 1000.7
20260505152305 76 164 6.0 13.0 0.00 0.13 0.04 91 1000.7
20260505152202 76 179 6.0 13.0 0.00 0.13 0.04 91 1000.6
20260505152102 76 158 4.0 13.0 0.00 0.13 0.04 91 1000.7
20260505152002 76 178 5.0 13.0 0.00 0.13 0.04 91 1000.6
20260505151903 76 216 5.0 13.0 0.00 0.13 0.04 91 1000.7
20260505151803 76 190 5.0 13.0 0.00 0.13 0.04 91 1000.7
20260505151702 76 216 6.0 13.0 0.00 0.13 0.04 91 1000.7
20260505151603 76 189 8.0 13.0 0.00 0.13 0.04 91 1000.7
20260505151502 76 171 7.0 13.0 0.00 0.13 0.04 91 1000.8
20260505151402 76 182 5.0 13.0 0.00 0.13 0.04 91 1000.7
20260505151302 75 161 4.0 14.0 0.00 0.13 0.04 91 1000.7
20260505151203 75 140 6.0 17.0 0.00 0.13 0.04 91 1000.7
20260505151103 75 195 7.0 17.0 0.00 0.13 0.04 91 1000.7
20260505150957 75 197 7.0 17.0 0.00 0.14 0.04 91 1000.7
20260505150854 75 207 8.0 17.0 0.00 0.14 0.04 91 1000.8
20260505150754 75 179 7.0 17.0 0.00 0.14 0.04 91 1000.7
20260505150649 75 192 7.0 17.0 0.00 0.14 0.04 91 1000.7
20260505150548 75 172 8.0 17.0 0.00 0.14 0.04 91 1000.7
20260505150447 75 172 11.0 17.0 0.00 0.14 0.04 91 1000.7
20260505150346 75 173 11.0 17.0 0.00 0.14 0.04 91 1000.7
20260505150244 75 209 8.0 15.0 0.00 0.14 0.04 91 1000.6
20260505150142 75 173 5.0 16.0 0.00 0.14 0.04 91 1000.6
20260505140629 74 173 9.0 17.0 0.01 0.15 0.04 94 1000.5
20260505140531 74 182 8.0 17.0 0.01 0.15 0.04 93 1000.5
20260505140429 74 0 10.0 18.0 0.01 0.15 0.04 93 1000.5
20260505140329 74 176 10.0 18.0 0.01 0.15 0.04 93 1000.4
20260505140229 74 197 8.0 18.0 0.01 0.15 0.04 93 1000.5
20260505140130 74 190 9.0 18.0 0.01 0.15 0.04 93 1000.5
20260505130228 72 168 7.0 11.0 0.00 0.14 0.03 95 1000.3
20260505130127 72 178 6.0 10.0 0.00 0.14 0.03 95 1000.3
20260505125027 72 204 7.0 13.0 0.00 0.15 0.03 95 1000.2
20260505124927 72 179 6.0 13.0 0.00 0.15 0.03 95 1000.2
20260505124827 72 196 4.0 13.0 0.00 0.15 0.03 95 1000.3
20260505124728 71 176 5.0 13.0 0.00 0.15 0.03 95 1000.3
20260505124627 71 200 6.0 13.0 0.00 0.15 0.03 95 1000.3
20260505124530 71 193 6.0 13.0 0.00 0.15 0.03 95 1000.3
20260505124428 71 186 5.0 13.0 0.00 0.15 0.03 95 1000.2
20260505124327 71 179 7.0 15.0 0.00 0.15 0.03 95 1000.2
20260505124229 71 172 9.0 15.0 0.00 0.15 0.03 95 1000.2
20260505124128 71 180 9.0 15.0 0.00 0.15 0.03 95 1000.1
20260505124028 71 161 9.0 15.0 0.00 0.15 0.03 95 1000.0
20260505123927 71 192 9.0 15.0 0.00 0.15 0.03 95 1000.1
20260505123829 71 169 9.0 15.0 0.00 0.15 0.03 95 1000.0
20260505123728 71 209 9.0 15.0 0.00 0.15 0.03 95 1000.0
20260505123627 71 182 9.0 15.0 0.00 0.15 0.03 95 1000.0
20260505123529 71 193 10.0 15.0 0.00 0.15 0.03 95 1000.0
20260505123427 71 176 9.0 15.0 0.00 0.15 0.03 95 1000.0
20260505123327 71 162 7.0 11.0 0.00 0.15 0.03 95 1000.0
20260505123227 71 196 7.0 12.0 0.00 0.15 0.03 95 1000.0
20260505123128 71 182 8.0 12.0 0.00 0.15 0.03 95 1000.0
20260505123029 71 193 8.0 12.0 0.00 0.15 0.03 95 999.9
20260505122927 71 182 8.0 12.0 0.00 0.15 0.03 95 999.8
20260505122828 71 189 7.0 12.0 0.00 0.15 0.03 95 1000.0
20260505122727 71 164 6.0 12.0 0.00 0.15 0.03 95 999.9
20260505122627 71 168 6.0 12.0 0.00 0.15 0.03 95 999.8
20260505122527 71 166 7.0 12.0 0.00 0.15 0.03 95 999.9
20260505122428 71 165 8.0 12.0 0.00 0.15 0.03 95 999.9
20260505122328 71 197 7.0 12.0 0.00 0.15 0.03 95 1000.0
20260505122227 71 192 5.0 12.0 0.00 0.15 0.03 95 1000.0
20260505122128 71 171 5.0 12.0 0.00 0.15 0.03 95 1000.0
20260505122027 71 183 7.0 12.0 0.00 0.15 0.03 95 1000.0
20260505121927 71 186 7.0 12.0 0.00 0.15 0.03 95 1000.0
20260505121829 71 175 6.0 12.0 0.00 0.15 0.03 95 1000.0
20260505121728 71 180 7.0 12.0 0.00 0.15 0.03 95 1000.0
20260505121627 71 172 6.0 12.0 0.00 0.15 0.03 95 999.9
20260505121526 71 190 6.0 12.0 0.00 0.15 0.03 95 999.9
20260505121428 71 189 6.0 12.0 0.00 0.15 0.03 95 999.9
20260505121327 71 178 6.0 12.0 0.00 0.15 0.03 95 999.9
20260505121227 71 195 6.0 12.0 0.00 0.15 0.03 95 999.9
20260505121128 71 176 6.0 12.0 0.00 0.15 0.03 95 999.8
20260505121027 71 192 6.0 12.0 0.00 0.15 0.03 95 999.8
20260505120927 71 162 6.0 12.0 0.00 0.15 0.03 95 999.8
20260505120826 71 190 5.0 12.0 0.00 0.15 0.03 95 999.9
20260505120727 71 169 5.0 9.0 0.00 0.15 0.03 95 999.8
20260505120627 71 180 5.0 9.0 0.00 0.15 0.03 95 999.9
20260505120527 71 185 5.0 9.0 0.00 0.15 0.03 95 999.9
20260505120428 71 183 5.0 10.0 0.00 0.15 0.03 95 999.9
20260505120327 71 175 5.0 10.0 0.00 0.15 0.03 95 999.9
20260505120227 71 175 5.0 10.0 0.00 0.15 0.03 95 999.9
20260505120126 71 189 5.0 11.0 0.00 0.15 0.03 95 999.9
20260505120026 71 175 4.0 11.0 0.00 0.15 0.03 95 1000.0
20260505115927 71 193 4.0 11.0 0.00 0.15 0.03 95 1000.0
20260505115826 71 195 4.0 11.0 0.00 0.15 0.03 95 1000.0
20260505115727 71 183 6.0 11.0 0.00 0.15 0.03 95 1000.0
20260505115626 71 179 6.0 11.0 0.00 0.15 0.03 95 1000.0
20260505115527 71 185 6.0 11.0 0.00 0.15 0.03 95 1000.0
20260505115426 71 182 6.0 11.0 0.01 0.15 0.03 95 999.9
20260505115327 71 180 6.0 11.0 0.01 0.15 0.03 95 999.8
20260505115226 71 183 6.0 11.0 0.01 0.15 0.03 95 999.8
20260505115126 71 185 6.0 10.0 0.01 0.15 0.03 95 999.8
20260505115028 71 166 6.0 10.0 0.01 0.15 0.03 95 999.7
20260505114926 71 172 6.0 10.0 0.01 0.15 0.03 95 999.6
20260505114826 71 157 5.0 10.0 0.01 0.15 0.03 95 999.6
20260505114726 71 186 5.0 9.0 0.01 0.15 0.03 95 999.6
20260505114627 71 164 6.0 12.0 0.01 0.15 0.03 95 999.6
20260505114527 71 166 6.0 12.0 0.01 0.15 0.03 95 999.7
20260505114427 71 196 5.0 12.0 0.01 0.15 0.03 95 999.7
20260505114328 71 180 6.0 12.0 0.01 0.15 0.03 95 999.7
20260505114226 71 171 6.0 12.0 0.01 0.15 0.03 95 999.8
20260505114126 71 206 6.0 12.0 0.01 0.15 0.03 95 999.7
20260505114026 71 190 5.0 12.0 0.01 0.15 0.03 95 999.8
20260505113927 71 190 6.0 12.0 0.01 0.15 0.03 95 999.8
20260505113826 71 199 6.0 12.0 0.01 0.15 0.03 95 999.7
20260505113726 71 199 7.0 12.0 0.01 0.15 0.03 95 999.6
20260505113628 71 204 7.0 11.0 0.01 0.15 0.03 95 999.7
20260505113526 71 180 7.0 11.0 0.01 0.15 0.03 95 999.6
20260505113426 71 171 7.0 11.0 0.01 0.15 0.03 95 999.6
20260505113327 70 173 6.0 10.0 0.01 0.15 0.03 95 999.7
20260505113227 70 175 6.0 10.0 0.01 0.15 0.03 95 999.7
20260505113125 71 179 6.0 10.0 0.01 0.15 0.03 95 999.6
20260505113026 70 183 6.0 10.0 0.01 0.15 0.03 95 999.5
20260505112927 70 188 6.0 10.0 0.01 0.15 0.03 95 999.6
20260505112826 70 183 6.0 10.0 0.01 0.15 0.03 95 999.5
20260505112726 70 173 6.0 9.0 0.01 0.15 0.03 95 999.6
20260505112627 70 188 5.0 9.0 0.01 0.15 0.03 95 999.6
20260505112527 70 185 5.0 9.0 0.01 0.15 0.03 95 999.7
20260505112426 70 172 5.0 9.0 0.01 0.15 0.03 95 999.8
20260505112326 70 173 5.0 9.0 0.01 0.15 0.03 95 999.8
20260505112227 70 197 5.0 9.0 0.01 0.15 0.03 95 999.8
20260505112126 70 183 5.0 10.0 0.01 0.15 0.03 95 999.9
20260505112026 70 185 4.0 10.0 0.01 0.15 0.03 95 1000.0
20260505111926 70 162 4.0 10.0 0.01 0.16 0.03 95 1000.0
20260505111825 70 188 5.0 10.0 0.01 0.16 0.03 95 1000.1
20260505111726 70 189 5.0 10.0 0.01 0.16 0.03 95 1000.1
20260505111625 70 188 4.0 10.0 0.01 0.16 0.03 95 1000.0
20260505111527 70 217 5.0 10.0 0.01 0.16 0.03 95 1000.1
20260505111425 70 196 6.0 10.0 0.01 0.16 0.03 95 1000.0
20260505111325 70 196 6.0 10.0 0.01 0.16 0.03 95 1000.0
20260505111226 70 182 6.0 10.0 0.01 0.16 0.03 95 1000.0
20260505111125 70 169 6.0 10.0 0.01 0.16 0.03 95 999.9
20260505111026 70 185 7.0 10.0 0.01 0.16 0.03 95 999.8
20260505110925 70 176 6.0 10.0 0.01 0.16 0.03 95 999.7
20260505110826 70 179 6.0 10.0 0.01 0.16 0.03 95 999.7
20260505110726 70 172 6.0 10.0 0.01 0.16 0.03 95 999.7
20260505110625 70 178 5.0 10.0 0.01 0.16 0.03 95 999.6
20260505110526 70 164 6.0 9.0 0.01 0.16 0.03 94 999.6
20260505110425 70 175 5.0 9.0 0.01 0.16 0.03 94 999.6
20260505110328 70 197 5.0 9.0 0.01 0.16 0.03 94 999.6
20260505110226 70 185 6.0 9.0 0.01 0.16 0.03 94 999.6
20260505110125 70 182 6.0 9.0 0.01 0.16 0.03 94 999.7
20260505102203 71 171 5.0 11.0 0.00 0.15 0.02 94 1000.0
20260505102102 70 197 5.0 11.0 0.00 0.15 0.02 94 1000.0
20260505102003 70 179 4.0 11.0 0.00 0.15 0.02 94 999.9
20260505101902 70 178 4.0 11.0 0.00 0.15 0.02 94 999.9
20260505101803 70 189 5.0 11.0 0.00 0.15 0.02 94 999.9
20260505101702 70 176 6.0 11.0 0.00 0.15 0.02 94 999.9
20260505101602 70 190 5.0 11.0 0.00 0.15 0.02 94 999.9
20260505101504 70 176 6.0 11.0 0.00 0.15 0.02 94 999.9
20260505101402 70 186 7.0 11.0 0.00 0.15 0.02 94 1000.0
20260505101302 70 188 6.0 11.0 0.00 0.15 0.02 94 1000.0
20260505101203 70 193 6.0 11.0 0.00 0.15 0.02 94 999.9
20260505101102 70 179 6.0 11.0 0.00 0.15 0.02 94 999.8
20260505101003 70 186 7.0 11.0 0.00 0.15 0.02 94 999.9
20260505100902 70 197 7.0 11.0 0.00 0.15 0.02 94 999.8
20260505100803 70 155 6.0 12.0 0.00 0.15 0.02 94 999.7
20260505100701 70 171 7.0 12.0 0.00 0.15 0.02 94 999.7
20260505100600 70 180 7.0 12.0 0.00 0.15 0.02 94 999.7
20260505100458 70 188 6.0 12.0 0.00 0.15 0.02 94 999.7
20260505100357 70 179 6.0 12.0 0.00 0.15 0.02 94 999.7
20260505100255 70 169 6.0 12.0 0.00 0.15 0.02 94 999.7
20260505100154 70 190 6.0 12.0 0.00 0.15 0.02 94 999.6
20260505100052 70 193 7.0 12.0 0.00 0.15 0.02 94 999.7
20260505095951 70 188 7.0 12.0 0.00 0.15 0.02 94 999.7
20260505095849 70 159 6.0 10.0 0.00 0.15 0.02 94 999.7
20260505095748 70 155 7.0 10.0 0.00 0.15 0.02 94 999.8
20260505095645 70 172 7.0 10.0 0.00 0.16 0.02 94 999.8
20260505095544 70 185 6.0 10.0 0.00 0.16 0.02 94 999.7
20260505095443 70 179 6.0 10.0 0.00 0.16 0.02 94 999.8
20260505095342 70 183 4.0 9.0 0.00 0.16 0.02 94 999.8
20260505095241 70 192 4.0 9.0 0.00 0.16 0.02 94 999.9
20260505095135 70 182 6.0 9.0 0.00 0.16 0.02 94 999.9
20260505095033 70 183 5.0 9.0 0.00 0.16 0.02 94 999.9
20260505094932 70 180 5.0 7.0 0.00 0.16 0.02 94 999.9
20260505094830 70 169 5.0 7.0 0.00 0.16 0.02 94 999.9
20260505094732 70 183 4.0 7.0 0.00 0.16 0.02 94 999.9
20260505094632 70 189 4.0 7.0 0.00 0.16 0.02 94 1000.0
20260505094532 70 178 5.0 7.0 0.00 0.16 0.02 94 1000.0
20260505094431 70 192 4.0 7.0 0.00 0.16 0.02 94 1000.0
20260505094332 70 189 4.0 7.0 0.00 0.16 0.02 94 999.9
20260505094231 70 189 4.0 7.0 0.00 0.16 0.02 94 1000.0
20260505094131 70 183 4.0 7.0 0.00 0.16 0.02 94 1000.0
20260505094032 70 196 4.0 7.0 0.00 0.16 0.02 94 1000.0
20260505093931 70 183 5.0 9.0 0.00 0.16 0.02 94 1000.0
20260505093830 70 199 4.0 9.0 0.00 0.16 0.02 94 1000.0
20260505093731 70 179 5.0 9.0 0.00 0.16 0.02 94 1000.1
20260505093632 70 204 5.0 9.0 0.00 0.16 0.02 94 1000.1
20260505093532 70 209 6.0 9.0 0.00 0.16 0.02 94 999.9
20260505093431 70 192 5.0 9.0 0.00 0.16 0.02 94 1000.0
20260505093332 70 183 5.0 9.0 0.00 0.16 0.02 94 1000.0
20260505093230 70 183 6.0 9.0 0.00 0.16 0.02 94 1000.0
20260505093131 70 188 5.0 9.0 0.00 0.16 0.02 94 1000.0
20260505093031 70 192 4.0 9.0 0.00 0.16 0.02 94 1000.1
20260505092932 69 192 5.0 7.0 0.00 0.16 0.02 94 999.9
20260505092831 70 185 5.0 7.0 0.00 0.16 0.02 94 1000.0
20260505092731 69 183 5.0 7.0 0.00 0.16 0.02 94 999.9
20260505092632 69 183 5.0 9.0 0.00 0.16 0.02 94 999.8
20260505092531 69 179 5.0 9.0 0.00 0.16 0.02 94 999.9
20260505092431 69 202 5.0 9.0 0.00 0.16 0.02 94 1000.0
20260505092332 69 175 5.0 9.0 0.00 0.16 0.02 94 999.9
20260505092231 69 188 5.0 9.0 0.00 0.16 0.02 94 999.8
20260505092131 69 188 5.0 9.0 0.00 0.16 0.02 94 999.9
20260505092031 69 190 5.0 9.0 0.00 0.16 0.02 94 999.9
20260505091932 69 180 5.0 9.0 0.01 0.16 0.02 93 1000.0
20260505091831 69 186 5.0 9.0 0.01 0.16 0.02 93 1000.0
20260505091731 69 180 5.0 9.0 0.01 0.16 0.02 93 1000.0
20260505091630 69 189 4.0 9.0 0.01 0.16 0.02 93 1000.1
20260505091531 69 189 4.0 9.0 0.01 0.16 0.02 93 1000.1
20260505091431 70 172 4.0 9.0 0.01 0.16 0.02 93 1000.0
20260505091331 69 186 4.0 9.0 0.01 0.16 0.02 93 1000.1
20260505091231 69 185 5.0 9.0 0.01 0.16 0.02 93 1000.0
20260505091132 69 182 5.0 9.0 0.01 0.16 0.02 93 1000.2
20260505091032 69 183 4.0 9.0 0.01 0.16 0.02 93 1000.2
20260505090932 69 195 5.0 9.0 0.01 0.16 0.02 93 1000.2
20260505090831 69 178 6.0 9.0 0.01 0.16 0.02 93 1000.1
20260505090731 69 185 6.0 9.0 0.01 0.16 0.02 93 1000.1
20260505090631 69 189 5.0 9.0 0.01 0.16 0.02 93 1000.1
20260505090531 69 192 5.0 9.0 0.01 0.16 0.02 93 1000.1
20260505090429 69 180 6.0 9.0 0.01 0.16 0.02 93 1000.1
20260505090328 70 199 5.0 9.0 0.01 0.16 0.02 93 1000.1
20260505090227 69 200 5.0 9.0 0.01 0.16 0.02 93 1000.1
20260505090126 69 186 5.0 9.0 0.01 0.16 0.02 93 1000.1
20260505090024 70 185 5.0 9.0 0.01 0.16 0.02 93 1000.1
20260505085922 70 182 5.0 9.0 0.01 0.16 0.02 93 1000.1
20260505085823 70 183 4.0 9.0 0.01 0.16 0.02 93 1000.1
20260505085723 70 183 5.0 9.0 0.01 0.16 0.02 93 1000.2
20260505085624 69 183 6.0 9.0 0.01 0.16 0.02 93 1000.2
20260505085522 70 185 6.0 9.0 0.01 0.16 0.02 93 1000.2
20260505085423 70 197 5.0 9.0 0.01 0.16 0.02 93 1000.2
20260505085324 69 190 5.0 7.0 0.01 0.16 0.02 93 1000.2
20260505085222 70 192 5.0 7.0 0.01 0.16 0.02 93 1000.2
20260505085122 69 186 4.0 6.0 0.01 0.16 0.02 93 1000.3
20260505085022 69 186 3.0 6.0 0.01 0.16 0.02 93 1000.3
20260505084924 69 193 3.0 7.0 0.01 0.16 0.02 93 1000.3
20260505084824 69 197 3.0 7.0 0.01 0.16 0.02 93 1000.3
20260505084722 69 200 4.0 7.0 0.01 0.16 0.02 93 1000.2
20260505084623 69 200 3.0 7.0 0.01 0.16 0.02 93 1000.2
20260505084522 69 186 2.0 7.0 0.01 0.16 0.02 93 1000.2
20260505084422 69 189 3.0 7.0 0.01 0.16 0.02 93 1000.2
20260505084322 69 190 4.0 9.0 0.01 0.16 0.02 93 1000.2
20260505084224 69 212 4.0 9.0 0.01 0.16 0.02 93 1000.1
20260505084122 69 207 4.0 9.0 0.01 0.16 0.02 93 1000.1
20260505084022 69 175 5.0 9.0 0.01 0.16 0.02 93 1000.2
20260505083923 69 180 4.0 9.0 0.01 0.16 0.02 93 1000.2
20260505083824 69 188 4.0 9.0 0.01 0.16 0.02 93 1000.2
20260505083722 69 183 4.0 9.0 0.01 0.16 0.02 93 1000.2
20260505083624 69 203 4.0 9.0 0.01 0.16 0.02 93 1000.3
20260505083522 69 183 5.0 9.0 0.01 0.16 0.02 93 1000.3
20260505083421 69 188 5.0 9.0 0.01 0.16 0.02 93 1000.3
20260505083319 69 186 4.0 9.0 0.01 0.16 0.02 93 1000.2
20260505083218 69 182 5.0 9.0 0.01 0.16 0.02 93 1000.3
20260505083115 69 192 5.0 9.0 0.01 0.16 0.02 93 1000.4
20260505083015 69 178 4.0 9.0 0.01 0.16 0.02 93 1000.4
20260505082913 69 196 4.0 9.0 0.01 0.16 0.02 93 1000.3
20260505082812 69 190 5.0 9.0 0.01 0.16 0.02 93 1000.4
20260505082710 69 196 6.0 9.0 0.01 0.17 0.02 93 1000.3
20260505082609 69 189 6.0 7.0 0.01 0.17 0.02 92 1000.3
20260505082504 69 195 5.0 7.0 0.01 0.17 0.02 92 1000.3
20260505082404 69 195 5.0 7.0 0.01 0.17 0.02 92 1000.2
20260505082304 69 195 5.0 7.0 0.01 0.17 0.02 92 1000.4
20260505082203 69 195 5.0 7.0 0.01 0.17 0.02 92 1000.4
20260505082103 69 192 4.0 7.0 0.01 0.17 0.02 92 1000.4
20260505082002 69 189 4.0 7.0 0.01 0.16 0.01 92 1000.4
20260505081904 69 188 4.0 7.0 0.00 0.16 0.01 92 1000.5
20260505081802 69 188 4.0 7.0 0.00 0.16 0.01 92 1000.5
20260505081702 69 202 4.0 7.0 0.00 0.16 0.01 92 1000.5
20260505081602 70 179 5.0 7.0 0.00 0.16 0.01 92 1000.5
20260505081504 70 183 5.0 7.0 0.00 0.16 0.01 92 1000.6
20260505081402 70 192 4.0 7.0 0.00 0.16 0.01 92 1000.6
20260505081302 70 189 3.0 9.0 0.00 0.16 0.01 92 1000.6
20260505081204 70 180 3.0 9.0 0.00 0.16 0.01 92 1000.6
20260505081102 70 190 4.0 9.0 0.00 0.16 0.01 92 1000.6
20260505081003 70 182 4.0 9.0 0.00 0.16 0.01 92 1000.6
20260505080902 70 183 4.0 9.0 0.00 0.16 0.01 92 1000.7
20260505080803 70 193 4.0 9.0 0.00 0.16 0.01 92 1000.6
20260505080702 70 180 5.0 9.0 0.00 0.16 0.01 92 1000.7
20260505080603 70 186 4.0 9.0 0.00 0.16 0.01 92 1000.6
20260505080505 70 197 4.0 9.0 0.00 0.16 0.01 92 1000.6
20260505080402 70 185 4.0 9.0 0.00 0.16 0.01 92 1000.5